Other Surface Observations
Issued by NWS Upton, NY

Current Version | Previous Version | Text Only | Print | Product List | Glossary Off
Versions: 1 2 3 4 5 6 7 8 9 10 11 12 13 14 15 16 17 18 19 20 21 22 23 24 25 26 27 28 29 30 31 32 33 34 35 36 37 38 39 40 41 42 43 44 45 46 47 48 49 50
000 SXUS51 KOKX 251957 OSOOKX NEW YORK CITY METROPOLITAN WEATHER ROUNDUP NATIONAL WEATHER SERVICE NEW YORK NY 400 PM EDT FRI JUL 25 2014 CITY SKY/WX TMP DP RH WIND PRES REMARKS CENTRAL PARK NOT AVBL LAGUARDIA APRT MOSUNNY 82 52 35 N6 29.97F KENNEDY INTL MOSUNNY 82 53 36 SW10 29.98F NEWARK/LIBERTY MOSUNNY 83 53 35 VRB5 29.97F TETERBORO APRT MOSUNNY 83 53 35 VRB3 29.96F BNX BOT. GARD. N/A 81 52 36 N9 30.00R >>>>>>>>>>>>>>>>>>>>>>>>>>>>>>>>> KEY <<<<<<<<<<<<<<<<<<<<<<<<<<<<<<< > SKY/WX - SKY CONDITION/ : R : WCI - WIND CHILL INDEX < > PRESENT WEATHER : E : VSB - VISIBILITY IN MILES < > TMP - TEMPERATURE IN DEG F : M : HX - HEAT INDEX < > DP - DEW POINT TEMPERATURE : A : TC - TEMPERATURE IN < > RH - RELATIVE HUMIDITY : R : CELSIUS < > WIND - DIRECTION/SPEED (MPH) : K : VRB - VARIABLE WIND DIR < > PRES - PRESSURE (IN HG) : S : < >>>>>>>>>>>>>>>>>>>>>>>>>>>>>>>>> KEY <<<<<<<<<<<<<<<<<<<<<<<<<<<<<<<

USA.gov is the U.S. government's official web portal to all federal, state and local government web resources and services.